Change the Weather History Date:

Wednesday, March 12, 2014

  Actual Average Record
Temperature  
Mean Temperature 80 °F 72 °F  
Max Temperature 87 °F 79 °F 89 °F (1922)
Min Temperature 73 °F 66 °F 40 °F (1924)
Degree Days  
Heating Degree Days 0 0  
Month to date heating degree days 0 7  
Since 1 July heating degree days 80 109  
Cooling Degree Days 15 8  
Month to date cooling degree days 103 92  
Year to date cooling degree days 491 448  
Growing Degree Days 30 (Base 50)    
Moisture  
Dew Point 67 °F    
Average Humidity 66    
Maximum Humidity 87    
Minimum Humidity 45    
Precipitation  
Precipitation 0.00 in 0.11 in 1.82 in (1970)
Month to date precipitation 1.14 1.20  
Year to date precipitation 6.65 7.79  
Snow  
Snow 0.00 in - - ()
Month to date snowfall 0.0  
Since 1 July snowfall 0.0  
Snow Depth 0.00 in    
Sea Level Pressure  
Sea Level Pressure 29.85 in    
Wind  
Wind Speed 12 mph (SW)    
Max Wind Speed 24 mph    
Max Gust Speed 32 mph    
Visibility 10 miles    
Events      
T = Trace of Precipitation, MM = Missing Value Source: NWS Daily Summary

Daily Weather History Graph

Daily Weather History Graph

Search for Another Location

Airport or City:

Trip Planner

Search our weather history database for the weather conditions in past years. The results will help you decide how hot, cold, wet, or windy it might be!

Date:

Astronomy

Mar. 12, 2014 Rise Set
Actual Time 7:33 AM EDT 7:27 PM EDT
Civil Twilight 7:09 AM EDT 7:50 PM EDT
Nautical Twilight 6:43 AM EDT 8:17 PM EDT
Astronomical Twilight 6:16 AM EDT 8:44 PM EDT
Moon 4:13 PM EDT (3/12) 4:46 AM EDT (3/12)
Length of Visible Light 12h 41m
Length of Day
11h 54m
Waxing Gibbous, 85% of the Moon is Illuminated
Mar 12
Waxing Gibbous
Mar 16
Full
Mar 23
Last Quarter
Mar 30
New
Apr 7
First Quarter

Hourly Weather History & Observations

Time (EDT) Temp. Heat Index Dew Point Humidity Pressure Visibility Wind Dir Wind Speed Gust Speed Precip Events Conditions
12:53 AM 73.9 °F - 66.9 °F 79% 29.90 in 10.0 mi South 4.6 mph - N/A   Clear
1:53 AM 73.0 °F - 66.9 °F 81% 29.89 in 10.0 mi SSW 3.5 mph - N/A   Partly Cloudy
2:53 AM 73.0 °F - 68.0 °F 84% 29.86 in 10.0 mi South 5.8 mph - N/A   Scattered Clouds
3:53 AM 73.9 °F - 68.0 °F 82% 29.86 in 10.0 mi SSW 4.6 mph - N/A   Overcast
4:53 AM 73.0 °F - 69.1 °F 87% 29.85 in 10.0 mi South 5.8 mph - N/A   Partly Cloudy
5:53 AM 73.9 °F - 69.1 °F 85% 29.84 in 10.0 mi South 6.9 mph - N/A   Partly Cloudy
6:53 AM 73.9 °F - 70.0 °F 87% 29.84 in 10.0 mi South 5.8 mph - N/A   Partly Cloudy
7:53 AM 73.9 °F - 70.0 °F 87% 29.86 in 10.0 mi Variable 4.6 mph - N/A   Mostly Cloudy
8:53 AM 75.9 °F - 71.1 °F 85% 29.87 in 10.0 mi SSW 6.9 mph - N/A   Mostly Cloudy
9:53 AM 79.0 °F - 70.0 °F 74% 29.88 in 10.0 mi SW 11.5 mph - N/A   Mostly Cloudy
10:53 AM 81.0 °F 83.3 °F 66.9 °F 62% 29.88 in 10.0 mi SW 13.8 mph - N/A   Scattered Clouds
11:53 AM 82.9 °F 84.4 °F 64.0 °F 53% 29.89 in 10.0 mi WSW 18.4 mph 26.5 mph N/A   Mostly Cloudy
12:53 PM 86.0 °F 86.3 °F 62.1 °F 44% 29.87 in 10.0 mi SW 16.1 mph - N/A   Partly Cloudy
1:53 PM 86.0 °F 87.3 °F 64.0 °F 48% 29.83 in 10.0 mi WSW 17.3 mph 24.2 mph N/A   Mostly Cloudy
2:53 PM 84.9 °F 86.1 °F 64.0 °F 49% 29.81 in 10.0 mi SW 18.4 mph 25.3 mph N/A   Mostly Cloudy
3:53 PM 87.1 °F 89.2 °F 66.0 °F 49% 29.78 in 10.0 mi WSW 19.6 mph 32.2 mph N/A   Scattered Clouds
4:53 PM 84.9 °F 87.1 °F 66.0 °F 53% 29.77 in 10.0 mi SW 17.3 mph 28.8 mph N/A   Scattered Clouds
5:53 PM 84.0 °F 85.8 °F 64.9 °F 53% 29.78 in 10.0 mi WSW 18.4 mph 32.2 mph N/A   Scattered Clouds
6:53 PM 82.0 °F 84.1 °F 66.0 °F 58% 29.79 in 10.0 mi WSW 17.3 mph 25.3 mph N/A   Scattered Clouds
7:53 PM 80.1 °F 82.1 °F 66.0 °F 62% 29.82 in 10.0 mi WSW 16.1 mph - N/A   Mostly Cloudy
8:53 PM 78.1 °F - 68.0 °F 71% 29.83 in 10.0 mi WSW 12.7 mph 23.0 mph N/A   Scattered Clouds
9:53 PM 77.0 °F - 69.1 °F 76% 29.86 in 10.0 mi WSW 12.7 mph - N/A   Scattered Clouds
10:53 PM 77.0 °F - 70.0 °F 79% 29.87 in 10.0 mi WSW 11.5 mph - N/A   Mostly Cloudy
11:53 PM 75.9 °F - 71.1 °F 85% 29.88 in 10.0 mi WSW 8.1 mph - N/A   Overcast